Location: Fort Worth, Tx
(32.7431°N, 97.3695°W)
Time: 11:35:53
(UTC-05:00)

Envisat - Visible Passes

Search period start: 13 December 2019 00:00
Search period end: 23 December 2019 00:00
Orbit: 764 x 766 km, 98.1° (Epoch: 13 December)

Date Brightness Start Highest point End Pass type
(mag) Time Alt. Az. Time Alt. Az. Time Alt. Az.
13 Dec 4.0 07:54:17 10° NNE 07:59:15 54° E 08:04:12 10° S visible
13 Dec 3.3 19:04:21 10° SE 19:09:09 44° ENE 19:13:58 10° N visible
13 Dec 5.8 20:45:11 10° SW 20:48:19 16° W 20:51:28 10° NW visible
14 Dec 5.7 07:18:26 10° NE 07:22:20 22° E 07:26:13 10° SE visible
14 Dec 4.4 20:06:37 10° SSW 20:11:21 40° W 20:16:06 10° NNW visible
15 Dec 2.9 19:29:29 10° SSE 19:34:33 83° ENE 19:39:39 10° N visible
16 Dec 4.5 07:43:09 10° NNE 07:47:57 41° E 07:52:43 10° S visible
16 Dec 3.6 18:53:24 10° SE 18:57:56 34° ENE 19:02:30 10° N visible
16 Dec 5.5 20:33:08 10° SW 20:36:57 21° W 20:40:48 10° NW visible
17 Dec 6.0 07:07:44 10° NE 07:10:59 17° E 07:14:13 10° SE visible
17 Dec 3.8 19:55:07 10° S 20:00:02 52° W 20:05:00 10° NNW visible
18 Dec 3.0 19:18:17 10° SSE 19:23:18 64° ENE 19:28:19 10° N visible
18 Dec 6.2 21:01:20 10° WSW 21:02:39 11° W 21:03:59 10° WNW visible
19 Dec 5.1 07:32:07 10° NE 07:36:38 32° E 07:41:06 10° SSE visible
19 Dec 5.0 20:21:19 10° SSW 20:25:37 28° W 20:29:56 10° NW visible
20 Dec 6.2 06:57:22 10° ENE 06:59:37 13° E 07:01:50 10° ESE visible
20 Dec 3.3 19:43:43 10° S 19:48:45 68° WSW 19:53:49 10° NNW visible
21 Dec 3.7 07:57:09 10° NNE 08:02:11 60° E 08:07:10 10° S visible
21 Dec 3.2 19:07:12 10° SSE 19:12:03 49° ENE 19:16:56 10° N visible
21 Dec 5.9 20:48:29 10° SW 20:51:17 15° W 20:54:05 10° WNW visible
22 Dec 5.5 07:21:11 10° NE 07:25:17 24° E 07:29:23 10° SSE visible
22 Dec 4.6 20:09:39 10° SSW 20:14:17 36° W 20:18:56 10° NNW visible
